EW2099 Weather Reports


Display with metric or nautical units.
time (UTC)temp
F
wind
direction
speed
MPH
gust
MPH
rain 1hr
in
rain 24hr
in
rain mn
in
humidity
%
barometer
mb
20260902023020 56 224 0.0 4.0 0.00 0.00 0.00 66 1020.3
20260902021518 56 226 0.0 4.0 0.00 0.00 0.00 66 1020.4
20260902020019 56 217 1.0 4.0 0.00 0.00 0.00 65 1020.4
20260902014527 56 223 1.0 5.0 0.00 0.00 0.00 65 1020.3
20260902013014 56 242 0.0 2.0 0.00 0.00 0.00 64 1020.4
20260902011521 57 253 0.0 4.0 0.00 0.00 0.00 64 1020.3
20260902010010 57 236 0.0 4.0 0.00 0.00 0.00 64 1020.3
20260902004509 57 217 0.0 3.0 0.00 0.06 0.00 63 1020.4
20260902003010 57 240 1.0 3.0 0.00 0.06 0.00 63 1020.4
20260902001506 57 235 0.0 4.0 0.00 0.06 0.00 63 1020.5
20260902000006 57 225 1.0 4.0 0.00 0.06 0.00 63 1020.6
20260901234513 57 214 1.0 3.0 0.00 0.06 0.00 62 1020.6
20260901233003 57 232 1.0 4.0 0.00 0.06 0.00 62 1020.7
20260901231501 57 218 0.0 3.0 0.00 0.06 0.00 62 1020.8
20260901230002 57 207 0.0 2.0 0.00 0.06 0.00 62 1021.0
20260901224600 57 201 0.0 2.0 0.00 0.06 0.00 62 1021.0
20260901223113 57 220 1.0 3.0 0.00 0.06 0.00 62 1020.9
20260901221558 57 169 0.0 2.0 0.00 0.06 0.00 62 1020.9
20260901220101 58 200 0.0 2.0 0.00 0.06 0.00 61 1021.0
20260901214553 58 228 1.0 4.0 0.00 0.06 0.06 61 1021.2
20260901213053 58 243 1.0 3.0 0.00 0.06 0.06 61 1021.1
20260901211555 59 226 0.0 3.0 0.00 0.06 0.06 60 1021.0
20260901210058 59 238 0.0 4.0 0.00 0.06 0.06 59 1021.0
20260901204549 59 221 1.0 3.0 0.00 0.06 0.06 59 1021.0
20260901203051 59 219 0.0 3.0 0.00 0.06 0.06 59 1021.1
20260901201546 60 243 0.0 3.0 0.00 0.06 0.06 59 1021.4
20260901200054 60 240 0.0 2.0 0.00 0.06 0.06 60 1021.4
20260901194600 61 212 0.0 2.0 0.00 0.06 0.06 58 1021.3
20260901193040 61 229 0.0 2.0 0.00 0.06 0.06 58 1021.3
20260901191543 62 221 0.0 3.0 0.00 0.06 0.06 57 1021.2
20260901190054 63 247 0.0 3.0 0.00 0.06 0.06 56 1021.1
20260901184539 63 243 1.0 3.0 0.00 0.06 0.06 55 1020.9
20260901183043 64 236 0.0 3.0 0.00 0.06 0.06 54 1020.9
20260901181546 65 208 0.0 5.0 0.00 0.06 0.06 52 1020.9
20260901180037 65 250 1.0 7.0 0.00 0.06 0.06 51 1020.9
20260901174518 66 249 1.0 5.0 0.00 0.06 0.06 50 1020.9
20260901173017 67 266 3.0 8.0 0.00 0.06 0.06 50 1021.0
20260901171517 68 269 2.0 6.0 0.00 0.06 0.06 50 1021.1
20260901170016 69 268 2.0 9.0 0.00 0.06 0.06 50 1021.2
20260901164515 69 264 2.0 10.0 0.00 0.06 0.06 49 1021.1
20260901163014 69 271 3.0 9.0 0.00 0.06 0.06 47 1021.2
20260901161512 69 292 1.0 7.0 0.00 0.06 0.06 51 1021.3
20260901160011 69 323 2.0 5.0 0.00 0.06 0.06 52 1021.2
20260901154511 69 283 2.0 5.0 0.00 0.06 0.06 52 1021.2
20260901153018 69 296 1.0 8.0 0.00 0.06 0.06 53 1021.2
20260901151508 68 243 1.0 9.0 0.00 0.06 0.06 53 1021.1
20260901150007 68 307 4.0 12.0 0.00 0.06 0.06 53 1021.1
20260901144508 69 307 2.0 8.0 0.00 0.06 0.06 53 1021.0
20260901143006 69 244 2.0 8.0 0.00 0.06 0.06 53 1021.2
20260901141507 68 262 3.0 9.0 0.00 0.06 0.06 53 1021.3
20260901140005 69 282 1.0 6.0 0.00 0.06 0.06 53 1021.3
20260901134503 69 321 2.0 7.0 0.00 0.06 0.06 53 1021.3
20260901133006 69 246 2.0 7.0 0.00 0.06 0.06 53 1021.2
20260901131506 68 303 2.0 11.0 0.00 0.06 0.06 53 1021.3
20260901130002 68 227 3.0 8.0 0.00 0.06 0.06 53 1021.4
20260901124602 69 256 2.0 9.0 0.00 0.06 0.06 53 1021.4
20260901123100 69 205 2.0 8.0 0.00 0.06 0.06 53 1021.4
20260901121611 68 46 2.0 10.0 0.00 0.06 0.06 53 1021.4
20260901120106 68 268 3.0 8.0 0.00 0.06 0.06 53 1021.4
20260901114602 68 352 1.0 7.0 0.00 0.06 0.06 53 1021.4
20260901113056 68 336 2.0 8.0 0.00 0.06 0.06 53 1021.5
20260901111559 68 272 2.0 7.0 0.00 0.06 0.06 53 1021.5
20260901110053 67 260 2.0 7.0 0.00 0.06 0.06 54 1021.5
20260901104552 68 293 3.0 9.0 0.00 0.06 0.06 53 1021.5
20260901103101 68 274 2.0 7.0 0.00 0.06 0.06 53 1021.4
20260901101553 67 360 3.0 7.0 0.00 0.06 0.06 53 1021.3
20260901100049 67 20 2.0 6.0 0.00 0.06 0.06 54 1021.4
20260901094547 67 252 1.0 6.0 0.00 0.08 0.06 55 1021.3
20260901093114 67 4 1.0 7.0 0.00 0.08 0.06 54 1021.2
20260901091559 66 328 2.0 6.0 0.00 0.08 0.06 56 1021.1
20260901090044 67 297 3.0 7.0 0.00 0.08 0.06 55 1021.1
20260901084543 67 3 3.0 7.0 0.00 0.08 0.06 54 1020.9
20260901083046 67 210 1.0 6.0 0.00 0.08 0.06 54 1020.8
20260901081538 66 242 1.0 7.0 0.00 0.08 0.06 55 1020.6
20260901080043 66 293 1.0 6.0 0.00 0.08 0.06 56 1020.4
20260901074535 66 295 1.0 4.0 0.00 0.08 0.06 56 1020.3
20260901073032 66 343 0.0 5.0 0.00 0.08 0.06 58 1020.1
20260901071532 65 23 1.0 7.0 0.00 0.08 0.06 59 1019.9
20260901070033 64 319 0.0 6.0 0.00 0.08 0.06 59 1019.9
20260901064530 64 259 0.0 3.0 0.00 0.08 0.06 60 1019.9
20260901063023 64 349 2.0 5.0 0.00 0.08 0.06 60 1019.8
20260901061523 63 302 1.0 4.0 0.00 0.08 0.06 61 1019.6
20260901060021 63 306 1.0 5.0 0.00 0.08 0.06 60 1019.4
20260901054520 63 309 0.0 3.0 0.00 0.21 0.06 60 1019.4
20260901053022 63 301 1.0 4.0 0.00 0.21 0.06 60 1019.3
20260901051517 63 305 1.0 4.0 0.00 0.21 0.06 60 1019.1
20260901050016 63 304 1.0 4.0 0.00 0.21 0.06 60 1019.0
20260901044514 63 323 0.0 3.0 0.00 0.31 0.06 61 1018.9
20260901043013 64 356 1.0 5.0 0.00 0.31 0.06 60 1018.8
20260901041512 64 325 0.0 4.0 0.00 0.31 0.06 60 1018.7
20260901040011 64 307 2.0 6.0 0.00 0.31 0.06 60 1018.6
20260901034512 64 291 1.0 6.0 0.00 0.36 0.06 61 1018.5
20260901033011 64 278 2.0 6.0 0.00 0.36 0.06 61 1018.2
20260901031511 64 329 2.0 9.0 0.00 0.36 0.06 61 1018.3
20260901030013 64 335 1.0 5.0 0.00 0.36 0.06 61 1018.2
20260901024506 64 342 2.0 8.0 0.00 0.36 0.06 62 1018.2